Hourly Data Report for October 02, 2017

All times are specified in Local Standard Time (LST). Add 1 hour to adjust for Daylight Saving Time where and when it is observed.

CAPE DORSET A
NUNAVUT

64°13'49.000" N
76°31'30.000" W
48.20 m
2400637
71366
YTE

Download Data

Hourly Data (October 2017)
Hourly Data Report for October 2, 2017
Temp Definition
°C
Dew Point Temp Definition
°C
Rel Hum Definition
%
Wind Dir Definition
10's deg

Wind Spd Definition
km/h
Visibility Definition
km
Stn Press Definition
kPa
Hmdx Definition


Wind Chill Definition


Weather Definition


TIME
00:00 Legend Double Dagger -1.4 -2.7 91 28 32 16.1 101.68   -9 LegendNANA
01:00 Legend Double Dagger -1.0 -2.3 91 26 35 16.1 101.61   -8 LegendNANA
02:00 Legend Double Dagger -0.6 -1.7 92 25 35 16.1 101.63   -8 LegendNANA
03:00 Legend Double Dagger -0.4 -1.5 92 26 22 16.1 101.60   -6 LegendNANA
04:00 Legend Double Dagger -0.1 -1.3 92 25 18 16.1 101.58   -5 LegendNANA
05:00 Legend Double Dagger 0.2 -0.1 98 25 34 16.1 101.50     LegendNANA
06:00 Legend Double Dagger 0.1 -0.3 97 25 34 16.1 101.51     LegendNANA
07:00 Legend Double Dagger -0.1 -0.4 98 23 48 8.1 101.39   -8 Fog
08:00 Legend Double Dagger -0.5 -0.8 98 23 45 6.4 101.31   -8 Fog
09:00 Legend Double Dagger -0.3 -1.0 95 23 35 16.1 101.27   -7 LegendNANA
10:00 Legend Double Dagger 0.0 -0.7 95 22 34 16.1 101.20   -7 LegendNANA
11:00 Legend Double Dagger 0.5 -0.2 95 23 24 16.1 101.11     LegendNANA
12:00 Legend Double Dagger 1.1 0.1 93 24 32 16.1 100.99     LegendNANA
13:00 Legend Double Dagger 1.3 0.3 93 24 34 16.1 100.88     LegendNANA
14:00 Legend Double Dagger 1.5 0.3 92 24 32 16.1 100.80     LegendNANA
15:00 Legend Double Dagger 1.8 0.3 90 24 37 16.1 100.68     LegendNANA
16:00 Legend Double Dagger 1.9 0.4 90 23 41 16.1 100.55     LegendNANA
17:00 Legend Double Dagger 1.7 0.4 91 23 30 16.1 100.45     LegendNANA
18:00 Legend Double Dagger 2.3 0.7 89 21 35 14.5 100.34     Rain
19:00 Legend Double Dagger 2.4 1.1 91 20 22 16.1 100.19     LegendNANA
20:00 Legend Double Dagger 2.6 1.3 91 19 24 16.1 100.01     Rain
21:00 Legend Double Dagger 2.3 1.4 94 18 24 11.3 99.84     Rain
22:00 Legend Double Dagger 2.2 1.6 96 19 30 9.7 99.67     Rain,Fog
23:00 Legend Double Dagger 2.3 1.7 96 20 30 8.1 99.52     Rain,Fog

Notes on Data Quality.

Legend

  • E = Estimated
  • M = Missing
  • NA = Not Available
  • ‡ = Partner data that is not subject to review by the National Climate Archives
Date modified: